Tracking 20093 objects as of 16-Dec-2019
HD Live streaming from Space Station
objects crossing your sky now

COSMOS 2251 DEB

Track COSMOS 2251 DEB now!
10-day predictions


NORAD ID: 38209
Int'l Code: 1993-036BSZ
Perigee: 511.5 km
Apogee: 602.6 km
Inclination: 74.1 °
Period: 95.6 minutes
Semi major axis: 6928 km
RCS: 0.0048 m2 (small)
Launch date: June 16, 1993
Source: Commonwealth of Independent States (former USSR) (CIS)
Launch site: PLESETSK MISSILE AND SPACE COMPLEX (PKMTR)

Note: This is SATELLITE DEBRIS
aabbcc
Your satellite tracking list
Your tracking list is empty




NASA's NSSDC Master Catalog

Two Line Element Set (TLE):
1 38209U 93036BSZ 14247.19705201 +.00034296 +00000-0 +22611-2 0  9994
2 38209 074.1190 069.7920 0065752 073.4562 311.1081 15.05533347266567
Source of the keplerian elements: AFSPC